Location: Unspecified
(0.0000°N, 0.0000°E)
Time: 16:24:55
(UTC+00:00)

Explorer 11/Cluster Stage 4 - Pass Details

Date: 23 November 2019
Orbit: 467 x 1259 km, 28.8° (Epoch: 12 December)

Event Time Altitude Azimuth Distance (km) Brightness Sun altitude
Rises 22:46:18 0° 330° (NNW) 3,621 - -64.8°
Reaches altitude 10° 22:49:55 10° 350° (N) 2,830 - -65.3°
Maximum altitude 22:54:15 17° 28° (NNE) 2,506 - -65.9°
Drops below altitude 10° 22:58:57 10° 65° (ENE) 3,118 - -66.5°
Sets 23:03:12 0° 84° (E) 4,162 - -67.0°
